Hourly Data Report for October 08, 2017

All times are specified in Local Standard Time (LST). Add 1 hour to adjust for Daylight Saving Time where and when it is observed.

NAPPAN AUTO
NOVA SCOTIA

45°45'34.400" N
64°14'29.200" W
19.80 m
8203702
71311
XNP

Download Data

Hourly Data (October 2017)
Hourly Data Report for October 8, 2017
Temp Definition
°C
Dew Point Temp Definition
°C
Rel Hum Definition
%
Wind Dir Definition
10's deg

Wind Spd Definition
km/h
Visibility Definition
km
Stn Press Definition
kPa
Hmdx Definition


Wind Chill Definition


Weather Definition


TIME
00:00 15.2 11.4 78 18 23   101.53     LegendNANA
01:00 15.5 10.4 72 18 26   101.48     LegendNANA
02:00 15.8 11.6 76 18 26   101.41     LegendNANA
03:00 16.5 13.3 81 19 15   101.41     LegendNANA
04:00 17.1 14.2 84 20 22   101.37     LegendNANA
05:00 17.4 14.8 85 20 19   101.41     LegendNANA
06:00 17.0 15.6 92 19 16   101.33     LegendNANA
07:00 17.7 15.9 90 19 18   101.26     LegendNANA
08:00 18.8 16.6 87 20 27   101.22     LegendNANA
09:00 19.8 17.2 85 20 24   101.16     LegendNANA
10:00 20.3 17.2 82 20 26   101.10 26   LegendNANA
11:00 21.3 17.7 80 22 22   101.09 27   LegendNANA
12:00 22.6 17.9 75 21 34   100.97 29   LegendNANA
13:00 23.0 18.2 74 21 38   100.88 29   LegendNANA
14:00 24.2 17.1 65 21 47   100.81 30   LegendNANA
15:00 23.4 16.2 64 20 37   100.69 28   LegendNANA
16:00 22.6 16.0 66 20 28   100.68 27   LegendNANA
17:00 22.3 15.9 67 21 38   100.68 27   LegendNANA
18:00 20.5 16.7 79 21 39   100.72 26   LegendNANA
19:00 19.5 18.0 91 23 36   100.81     LegendNANA
20:00 18.1 16.7 92 21 41   100.84     LegendNANA
21:00 17.8 16.6 93 21 31   100.88     LegendNANA
22:00 17.3 16.3 94 21 16   100.98     LegendNANA
23:00 16.8 16.0 95 17 10   101.01     LegendNANA

Notes on Data Quality.

Legend

  • E = Estimated
  • M = Missing
  • NA = Not Available
  • ‡ = Partner data that is not subject to review by the National Climate Archives
Date modified: